Regional Weather Roundup
Issued by NWS

Home | Current Version | Previous Version | Text Only | Print | Product List | Glossary Off
Versions: 1 2 3 4 5 6 7 8 9 10 11 12 13 14 15 16 17 18 19 20 21 22 23 24 25 26 27 28 29 30 31 32 33 34 35 36 37 38 39 40 41 42 43 44 45 46 47 48 49 50

000
ASUS43 KIND 300909
RWRIN

WEATHER ROUNDUP FOR INDIANA
NATIONAL WEATHER SERVICE INDIANAPOLIS IN
500 AM EDT SAT MAY 30 2015

NOTE: "FAIR" INDICATES FEW OR NO CLOUDS BELOW 12,000 FEET WITH NO
SIGNIFICANT WEATHER AND/OR OBSTRUCTIONS TO VISIBILITY.

* - STATION DOES NOT REPORT WEATHER SUCH AS PRECIPITATION OR FOG.

+ - STATION NOT QUALITY CONTROLLED BY THE NATIONAL WEATHER SERVICE.
    USE DATA WITH CAUTION...ESPECIALLY DEWPOINT AND RELATIVE
    HUMIDITY OBSERVATIONS.

INZ001>003-010>013-019-020-301000-
NORTHWEST INDIANA

CITY           SKY/WX    TMP DP  RH WIND       PRES   REMARKS
GARY /AIRPORT/ LGT RAIN  71  66  86 S5        29.95S
KNOX *+        CLOUDY    68  64  88 S7        29.96S
LA PORTE +     CLOUDY    69  67  92 SW7       29.97S
MICHIGAN CITY+ CLOUDY    68  66  94 SW7       29.96S
MONTICELLO +   CLOUDY    69  66  91 S5        29.97F
RENSSELAER +   CLOUDY    70  68  94 SW10      29.97S
VALPARAISO     CLOUDY    68  65  90 SW8       29.96F

$$

LMZ046-743>745-301000-
SOUTHERN LAKE MICHIGAN

STATION/POSITION TIME  TEMP    WIND        PRES    WAVE
                       AIR SEA DIR/SP/G            HT
                 (UTC) (F)     (DEG/KT/KT) (MB)    (FT)
BURNS HARBOR     0900   70     210/  9/ 16 1014.6S
MICHIGAN CITY    0900   68     180/ 11/ 14   N/A
5NW MICH CITY    0900   61 56  210/  6/  8   N/A     1

$$

INZ004-005-014>016-021>024-301000-
NORTH CENTRAL INDIANA

CITY           SKY/WX    TMP DP  RH WIND       PRES   REMARKS
GOSHEN         MOCLDY    69  65  86 SW8       29.97S
LOGANSPORT +   MOCLDY    68  63  83 SW5       29.99F
PERU/GRISSOM   MOCLDY    69  66  91 S6        29.98F
ROCHESTER +    MOCLDY    72  64  78 SW6       29.98F
SOUTH BEND     CLOUDY    69  66  90 SW7       29.96S
WARSAW +       PTCLDY    70  64  83 SW5       29.98F

$$

INZ006>009-017-018-025>027-301000-
NORTHEAST INDIANA

CITY           SKY/WX    TMP DP  RH WIND       PRES   REMARKS
ANGOLA *+      PTCLDY    70  61  73 SW6       29.98S
AUBURN +       PTCLDY    70  63  78 S3        30.00S
FORT WAYNE     MOCLDY    68  64  87 SW7       30.00S
HUNTINGTON +   CLOUDY    67  64  91 CALM      30.00S

$$

INZ028-029-035-036-043>045-051>053-301000-
WEST CENTRAL INDIANA

CITY           SKY/WX    TMP DP  RH WIND       PRES   REMARKS
CRAWFORDSVL +  MOCLDY    65  60  86 S5        30.00S
GREENCASTLE +  CLEAR     66  61  82 CALM      30.01S
LAFAYETTE      CLOUDY    67  64  90 CALM      29.98S
TERRE HAUTE    CLEAR     67  65  93 SW3       29.99F

$$

INZ030>032-037>040-046>048-054>057-064-065-301000-
CENTRAL INDIANA

CITY           SKY/WX    TMP DP  RH WIND       PRES   REMARKS
CP ATTERBURY + CLEAR     64  63  94 CALM      30.02F
FISHERS *+     CLEAR     68  66  94 S5        30.01F
FRANKFORT +    MOCLDY    67  67 100 CALM      30.01F
GREENWOOD *+   CLEAR     68  64  88 S7        30.02F
INDIANAPOLIS   PTCLDY    68  65  90 SW7       29.99F
-EAGLE CREEK   CLEAR     68  65  90 S5        30.00F
KOKOMO *+      MOCLDY    68  63  83 S6        30.00S
MARION +       MOCLDY    67  63  86 S7        30.01S
MT COMFORT *+  CLEAR     68 N/A N/A S6        30.02F
SHELBYVILLE    CLEAR     70  65  84 S9        30.01F
ZIONSVILLE +   PTCLDY    69  64  85 SW6       30.02S

$$

INZ033-034-041-042-049-050-058-059-301000-
EAST CENTRAL INDIANA

CITY           SKY/WX    TMP DP  RH WIND       PRES   REMARKS
MUNCIE         PTCLDY    71  65  81 SW7       30.01F

$$

INZ060-061-067>069-081>083-085>088-301000-
SOUTHWEST INDIANA

CITY           SKY/WX    TMP DP  RH WIND       PRES   REMARKS
EVANSVILLE     PTCLDY    70  67  90 S6        30.01F
HUNTINGBURG *+ CLEAR     70  66  88 S7        30.04S
WASHINGTON +   CLEAR     69  65  86 S6        30.00F

$$

INZ062-063-066-070>080-084-089>092-301000-
SOUTH CENTRAL AND SOUTHEAST INDIANA

CITY           SKY/WX    TMP DP  RH WIND       PRES   REMARKS
BLOOMINGTON    CLEAR     68  66  93 S6        30.02S
MADISON *+     PTCLDY    68  64  88 S5        30.07S
NORTH VERNON + CLEAR     68  68 100 S3        30.05S
SEYMOUR +      CLEAR     68  66  94 S5        30.03S

$$



USA.gov is the U.S. government's official web portal to all federal, state and local government web resources and services.